This is the latest recevied weather packets stored in our database for station/object N2ZVN. If no packets are shown the sender has not sent any weather packets the latest 10 day(s).
| Time | Temp. | Humidity | Pressure | Rain* | Wind** | Luminosity | Snow |
|---|---|---|---|---|---|---|---|
| 1777491686 | 7.78° C | 92% | 1009.4 hPa | 3.56 mm | - | 63 W/m² | - |
| 1777491384 | 8.33° C | 92% | 1009.5 hPa | 3.05 mm | - | 39 W/m² | - |
| 1777491081 | 8.33° C | 91% | 1009.8 hPa | 3.05 mm | - | 44 W/m² | - |
| 1777490776 | 8.33° C | 92% | 1009.7 hPa | 1.78 mm | - | 35 W/m² | - |
| 1777490473 | 8.33° C | 92% | 1009.8 hPa | 0 mm | - | 42 W/m² | - |
| 1777490169 | 8.33° C | 93% | 1009.6 hPa | 1.27 mm | - | 68 W/m² | - |
| 1777489866 | 8.33° C | 92% | 1009.6 hPa | 1.27 mm | - | 70 W/m² | - |
| 1777489563 | 8.33° C | 92% | 1009.6 hPa | 1.78 mm | - | 75 W/m² | - |
| 1777489260 | 8.33° C | 91% | 1009.8 hPa | 3.05 mm | - | 61 W/m² | - |
| 1777488957 | 8.33° C | 91% | 1009.9 hPa | 1.27 mm | - | 62 W/m² | - |
| 1777488654 | 8.33° C | 91% | 1009.9 hPa | 1.78 mm | - | 67 W/m² | - |
| 1777488352 | 8.33° C | 91% | 1009.9 hPa | 3.05 mm | - | 102 W/m² | - |
| 1777488050 | 8.33° C | 90% | 1009.8 hPa | 3.05 mm | - | 84 W/m² | - |
| 1777487747 | 8.33° C | 91% | 1009.9 hPa | 3.05 mm | - | 86 W/m² | - |
| 1777487445 | 8.33° C | 91% | 1010 hPa | 4.83 mm | - | 86 W/m² | - |
| 1777487143 | 8.33° C | 91% | 1010.2 hPa | 3.05 mm | - | 94 W/m² | - |
| 1777486838 | 8.33° C | 91% | 1010.3 hPa | 3.05 mm | - | 70 W/m² | - |
| 1777486536 | 8.33° C | 91% | 1010.4 hPa | 4.83 mm | - | 50 W/m² | - |
| 1777486233 | 8.33° C | 91% | 1010.1 hPa | 1.78 mm | - | 45 W/m² | - |
| 1777485931 | 8.33° C | 91% | 1010.4 hPa | 1.27 mm | - | 24 W/m² | - |
| 1777485626 | 8.33° C | 89% | 1010.5 hPa | 0 mm | - | 25 W/m² | - |
| 1777485321 | 8.33° C | 89% | 1010.3 hPa | 1.78 mm | - | 60 W/m² | - |
| 1777485018 | 8.33° C | 88% | 1010.1 hPa | 0 mm | - | 61 W/m² | - |
| 1777484716 | 8.33° C | 88% | 1010.1 hPa | 0 mm | - | 65 W/m² | - |
| 1777484412 | 8.33° C | 88% | 1010 hPa | 1.27 mm | - | 82 W/m² | - |
* Rain latest hour (hover to see other rain measurements)
** Current wind speed in m/s (hover to see current wind gust speed)